Location: Ahstedt
(52.2048°N, 10.1060°E)
Time: 20:56:06
(UTC+00:00)

Cosmos 1703 Rocket - Pass Details

Date: 18 January 2026
Orbit: 599 x 625 km, 82.5° (Epoch: 15 February)

Event Time Altitude Azimuth Distance (km) Brightness Sun altitude
Rises 05:33:24 0° 352° (N) 2,861 6.8 -15.6°
Reaches altitude 10° 05:35:40 10° 357° (N) 1,955 5.9 -15.2°
Maximum altitude 05:39:54 53° 75° (ENE) 743 4.3 -14.6°
Drops below altitude 10° 05:44:08 10° 153° (SSE) 1,948 6.7 -14.0°
Sets 05:46:23 0° 158° (SSE) 2,851 7.5 -13.7°
